This is the latest recevied weather packets stored in our database for station/object N2XP-3. If no packets are shown the sender has not sent any weather packets the latest 10 day(s).
| Time | Temp. | Humidity | Pressure | Rain* | Wind** | Luminosity | Snow |
|---|---|---|---|---|---|---|---|
| 1777914627 | 22.22° C | 36% | 1008.8 hPa | 0 mm | 3.13 m/s, 23° | - | - |
| 1777914581 | 22.22° C | 36% | 1008.8 hPa | 0 mm | 3.13 m/s, 23° | - | - |
| 1777914279 | 22.78° C | 37% | 1008.8 hPa | 0 mm | 4.47 m/s, 221° | - | - |
| 1777913680 | 22.78° C | 38% | 1009.1 hPa | 0 mm | 2.68 m/s, 208° | - | - |
| 1777913121 | 22.22° C | 37% | 1009.3 hPa | 0 mm | 2.24 m/s, 184° | - | - |
| 1777913074 | 22.22° C | 37% | 1009.3 hPa | 0 mm | 2.24 m/s, 184° | - | - |
| 1777912836 | 22.22° C | 38% | 1009.3 hPa | 0 mm | 1.34 m/s, 195° | - | - |
| 1777912775 | 22.22° C | 38% | 1009.3 hPa | 0 mm | 1.34 m/s, 195° | - | - |
| 1777912505 | 22.22° C | 37% | 1009.3 hPa | 0 mm | 3.13 m/s, 190° | - | - |
| 1777912472 | 22.22° C | 37% | 1009.3 hPa | 0 mm | 3.13 m/s, 190° | - | - |
| 1777912239 | 22.22° C | 38% | 1009.5 hPa | 0 mm | 3.13 m/s, 235° | - | - |
| 1777912203 | 22.22° C | 38% | 1009.5 hPa | 0 mm | 3.13 m/s, 235° | - | - |
| 1777912169 | 22.22° C | 38% | 1009.5 hPa | 0 mm | 3.13 m/s, 235° | - | - |
| 1777911922 | 21.67° C | 37% | 1009.4 hPa | 0 mm | 1.79 m/s, 270° | - | - |
| 1777911870 | 21.67° C | 37% | 1009.4 hPa | 0 mm | 1.79 m/s, 270° | - | - |
| 1777911264 | 21.67° C | 38% | 1009.6 hPa | 0 mm | 2.68 m/s, 194° | - | - |
| 1777910359 | 21.67° C | 38% | 1009.8 hPa | 0 mm | 3.13 m/s, 203° | - | - |
| 1777909823 | 21.11° C | 37% | 1009.7 hPa | 0 mm | 1.34 m/s, 314° | - | - |
| 1777909750 | 21.11° C | 37% | 1009.7 hPa | 0 mm | 1.34 m/s, 314° | - | - |
| 1777909490 | 21.11° C | 37% | 1010 hPa | 0 mm | 2.24 m/s, 283° | - | - |
| 1777909451 | 21.11° C | 37% | 1010 hPa | 0 mm | 2.24 m/s, 283° | - | - |
| 1777908847 | 21.11° C | 38% | 1010.2 hPa | 0 mm | 1.34 m/s, 276° | - | - |
| 1777908548 | 21.11° C | 38% | 1010.2 hPa | 0 mm | 0.89 m/s, 315° | - | - |
| 1777908305 | 21.11° C | 36% | 1010.3 hPa | 0 mm | 2.24 m/s, 184° | - | - |
| 1777908247 | 21.11° C | 36% | 1010.3 hPa | 0 mm | 2.24 m/s, 184° | - | - |
* Rain latest hour (hover to see other rain measurements)
** Current wind speed in m/s (hover to see current wind gust speed)